M0HZQ-1 Weather Reports


Display with metric or nautical units.
time (UTC)temp
F
wind
direction
speed
MPH
gust
MPH
rain 1hr
in
rain 24hr
in
rain mn
in
humidity
%
barometer
mb
20260507054949 53 0 0.0 0.0 0.00 0.00 0.00 60 1016.4
20260507053129 55 0 0.0 0.0 0.00 0.00 0.00 61 1016.3
20260507051204 54 0 0.0 0.0 0.00 0.00 0.00 63 1016.2
20260507045504 54 0 0.0 0.0 0.00 0.00 0.00 64 1016.1
20260507043714 52 0 0.0 0.0 0.00 0.00 0.00 65 1015.9
20260507042054 51 0 0.0 0.0 0.00 0.00 0.00 66 1016.0
20260507040254 51 0 0.0 0.0 0.00 0.00 0.00 66 1015.8
20260507034554 50 0 0.0 0.0 0.00 0.00 0.00 66 1015.9
20260507032934 51 0 0.0 0.0 0.00 0.00 0.00 66 1015.8
20260507031247 51 0 0.0 0.0 0.00 0.00 0.00 66 1015.8
20260507025259 50 0 0.0 0.0 0.00 0.00 0.00 65 1015.8
20260507023314 51 0 0.0 0.0 0.00 0.00 0.00 64 1015.8
20260507021504 51 0 0.0 0.0 0.00 0.00 0.00 64 1015.7
20260507015709 51 0 0.0 0.0 0.00 0.00 0.00 64 1015.6
20260507013944 51 0 0.0 0.0 0.00 0.00 0.00 64 1015.8
20260507012129 51 0 0.0 0.0 0.00 0.00 0.00 63 1015.6
20260507010134 52 0 0.0 0.0 0.00 0.00 0.00 63 1015.7
20260507004514 52 0 0.0 0.0 0.00 0.00 0.00 63 1015.6
20260507002817 51 0 0.0 0.0 0.00 0.00 0.00 63 1015.7
20260507001122 51 0 0.0 0.0 0.00 0.00 0.00 63 1015.8
20260506235404 51 0 0.0 0.0 0.00 0.00 0.00 62 1015.8
20260506233517 52 0 0.0 0.0 0.00 0.00 0.00 61 1015.5
20260506231904 52 0 0.0 0.0 0.00 0.00 0.00 61 1015.6
20260506230024 51 0 0.0 0.0 0.00 0.00 0.00 61 1015.6
20260506224417 52 0 0.0 0.0 0.00 0.00 0.00 60 1015.7
20260506222509 51 0 0.0 0.0 0.00 0.00 0.00 59 1015.5
20260506220837 52 0 0.0 0.0 0.00 0.00 0.00 58 1015.4
20260506215044 53 0 0.0 0.0 0.00 0.00 0.00 57 1015.3
20260506213238 53 0 0.0 0.0 0.00 0.00 0.00 55 1015.5
20260506211624 53 0 0.0 0.0 0.00 0.00 0.00 54 1015.4
20260506205824 53 0 0.0 0.0 0.00 0.00 0.00 54 1015.2
20260506203939 53 0 0.0 0.0 0.00 0.00 0.00 52 1015.2
20260506202134 55 0 0.0 0.0 0.00 0.00 0.00 51 1015.1
20260506200524 54 0 0.0 0.0 0.00 0.00 0.00 51 1014.8
20260506194804 54 0 0.0 0.0 0.00 0.00 0.00 50 1014.7
20260506193048 55 0 0.0 0.0 0.00 0.00 0.00 48 1014.6
20260506191434 55 0 0.0 0.0 0.00 0.00 0.00 47 1014.5
20260506185644 56 0 0.0 0.0 0.00 0.00 0.00 47 1014.4
20260506183757 56 0 0.0 0.0 0.00 0.00 0.00 46 1014.3
20260506181909 56 0 0.0 0.0 0.00 0.00 0.00 46 1014.1
20260506175937 57 0 0.0 0.0 0.00 0.00 0.00 44 1014.0
20260506174224 57 0 0.0 0.0 0.00 0.00 0.00 42 1013.6
20260506172557 58 0 0.0 0.0 0.00 0.00 0.00 42 1013.5
20260506170629 59 0 0.0 0.0 0.00 0.00 0.00 41 1013.5
20260506164804 59 0 0.0 0.0 0.00 0.00 0.00 41 1013.6
20260506163029 60 0 0.0 0.0 0.00 0.00 0.00 40 1013.5
20260506161303 60 0 0.0 0.0 0.00 0.00 0.00 41 1013.6
20260506155554 60 0 0.0 0.0 0.00 0.00 0.00 42 1013.6
20260506153649 60 0 0.0 0.0 0.00 0.00 0.00 42 1013.6
20260506152008 60 0 0.0 0.0 0.00 0.00 0.00 43 1013.6
20260506150233 60 0 0.0 0.0 0.00 0.00 0.00 43 1013.6
20260506144507 59 0 0.0 0.0 0.00 0.00 0.00 44 1013.7
20260506142608 58 0 0.0 0.0 0.00 0.00 0.00 46 1013.6
20260506140904 58 0 0.0 0.0 0.00 0.00 0.00 46 1013.7
20260506135014 58 0 0.0 0.0 0.00 0.00 0.00 46 1013.8
20260506133414 59 0 0.0 0.0 0.00 0.00 0.00 45 1013.7
20260506131434 61 0 0.0 0.0 0.00 0.00 0.00 43 1013.8
20260506125709 60 0 0.0 0.0 0.00 0.00 0.00 44 1013.7
20260506123844 59 0 0.0 0.0 0.00 0.00 0.00 44 1013.7
20260506121857 59 0 0.0 0.0 0.00 0.00 0.00 43 1013.8
20260506120253 58 0 0.0 0.0 0.00 0.00 0.00 45 1013.8
20260506114544 59 0 0.0 0.0 0.00 0.00 0.00 44 1013.7
20260506112803 60 0 0.0 0.0 0.00 0.00 0.00 45 1013.7
20260506110804 59 0 0.0 0.0 0.00 0.00 0.00 45 1013.7
20260506105134 58 0 0.0 0.0 0.00 0.00 0.00 45 1013.8
20260506103254 57 0 0.0 0.0 0.00 0.00 0.00 45 1013.7
20260506101504 57 0 0.0 0.0 0.00 0.00 0.00 46 1013.7
20260506095844 56 0 0.0 0.0 0.00 0.00 0.00 46 1013.7
20260506093924 56 0 0.0 0.0 0.00 0.00 0.00 46 1013.8
20260506092214 56 0 0.0 0.0 0.00 0.00 0.00 47 1013.8
20260506090509 57 0 0.0 0.0 0.00 0.00 0.00 48 1013.6
20260506084544 55 0 0.0 0.0 0.00 0.00 0.00 49 1013.6
20260506082609 55 0 0.0 0.0 0.00 0.00 0.00 51 1013.3
20260506080859 53 0 0.0 0.0 0.00 0.00 0.00 54 1013.5
20260506073337 54 0 0.0 0.0 0.00 0.00 0.00 54 1013.5
20260506071724 53 0 0.0 0.0 0.00 0.00 0.00 56 1013.4
20260506062354 51 0 0.0 0.0 0.00 0.00 0.00 58 1013.3